Weather in San Ramon

United States     37°44′34″N   121°56′18″W
В апреле 2022 года жителям России запретили посещать сайт meteo.paraplan.net по решению Генеральной прокуратуры. Аудитория сайта уменьшилась в 10 раз. Владельцы сайта не видят смысла в поддержке погодного сервера в таких условиях. Сайт будет закрыт в октябре.
temp.,
°C
wind,
m/s
gust,
m/s
humid.,
%
clouds,
%
prec.,
mm/h
press.,
hPa
HPBL,
m
4 october, tue
tue423:00+13sw22940 0.0 101746
02:00+12sw11951 0.0 101631
05:00+12sw11955 0.0 101621
08:00+13sw119057 0.0 101746
11:00+23wsw114917 0.0 1016399
14:00+28wsw21310 0.0 1015853
17:00+26wsw22374 0.0 1013489
20:00+16sw22680 0.0 101528
5 october, wed
wed523:00+14sw21790 0.0 101528
02:00+14ssw11831 0.0 101516
05:00+13sw11780 0.0 101511
08:00+15ssw00680 0.0 101515
11:00+27w11300 0.0 1016489
14:00+32wsw21190 0.0 10141109
17:00+28wsw22290 0.0 1013459
20:00+19wsw11560 0.0 101521
6 october, thu
thu623:00+16ssw11635 0.0 101515
02:00+16sw116328 0.0 101511
05:00+16sw005811 0.0 101511
08:00+17sse0057100 0.0 101613
11:00+28ese012572 0.0 1016459
14:00+32wsw22198 0.0 10151162
17:00+28wsw22285 0.0 1015447
20:00+20wsw115291 0.0 101621
7 october, fri
fri723:00+17sw11590 0.0 101717
02:00+16sw11604 0.0 101713
05:00+16w005619 0.0 101711
08:00+18nne11450 0.0 101811
11:00+30n02210 0.0 1017531
14:00+35wsw11150 0.0 10141238
17:00+31w22200 0.0 1014548
20:00+22sw11410 0.0 101517
8 october, sat
sat823:00+20sw11430 0.0 101512
02:00+19ssw11410 0.0 101511
05:00+18ssw00430 0.0 101511
08:00+20ene11370 0.0 101511
11:00+31w10180 0.0 1015508
14:00+33wsw32140 0.0 10131089
17:00+30w23170 0.0 1012507
20:00+21wsw11350 0.0 101420